Weather History for Burlington, IA

Change the Weather History Date:

Saturday, May 3, 2014

  Actual Average Record
Temperature  
Mean Temperature 60 °F 60 °F  
Max Temperature 73 °F 70 °F 90 °F (1928)
Min Temperature 47 °F 49 °F 28 °F (2005)
Degree Days  
Heating Degree Days 5 7  
Month to date heating degree days 33 21  
Since 1 July heating degree days 6714 5483  
Cooling Degree Days 0 1  
Month to date cooling degree days 0 3  
Year to date cooling degree days 8 23  
Growing Degree Days 10 (Base 50)    
Moisture  
Dew Point 39 °F    
Average Humidity 51    
Maximum Humidity 76    
Minimum Humidity 25    
Precipitation  
Precipitation T in 0.17 in 3.00 in (2013)
Month to date precipitation T 0.50  
Year to date precipitation 9.58 9.91  
Sea Level Pressure  
Sea Level Pressure 29.86 in    
Wind  
Wind Speed 9 mph (WNW)    
Max Wind Speed 22 mph    
Max Gust Speed 31 mph    
Visibility 10 miles    
Events Rain    
T = Trace of Precipitation, MM = Missing Value Source: NWS Daily Summary

Daily Weather History Graph

Daily Weather History Graph

Search for Another Location

Airport:

Trip Planner

Search our weather history database for the weather conditions in past years. The results will help you decide how hot, cold, wet, or windy it might be!

Date:

Astronomy

May. 03, 2014 Rise Set
Actual Time 6:00 AM CDT 8:02 PM CDT
Civil Twilight 5:30 AM CDT 8:32 PM CDT
Nautical Twilight 4:53 AM CDT 9:09 PM CDT
Astronomical Twilight 4:14 AM CDT 9:49 PM CDT
Moon 9:30 AM CDT (5/3) No Moon Set
Length of Visible Light 15h 02m
Length of Day
14h 02m
Waxing Crescent, 20% of the Moon is Illuminated
May 3
Waxing Crescent
May 6
First Quarter
May 14
Full
May 21
Last Quarter
May 28
New

Hourly Weather History & Observations

Time (CDT) Temp. Dew Point Humidity Pressure Visibility Wind Dir Wind Speed Gust Speed Precip Events Conditions
12:53 AM 54.0 °F 41.0 °F 62% 29.76 in 10.0 mi NW 5.8 mph - N/A   Clear
1:53 AM 51.1 °F 41.0 °F 68% 29.77 in 10.0 mi Calm Calm - N/A   Clear
2:53 AM 46.9 °F 39.9 °F 77% 29.77 in 10.0 mi WSW 5.8 mph - N/A   Clear
3:53 AM 50.0 °F 39.0 °F 66% 29.79 in 10.0 mi West 4.6 mph - N/A   Clear
4:53 AM 48.9 °F 39.0 °F 69% 29.80 in 10.0 mi WNW 4.6 mph - N/A   Clear
5:53 AM 48.0 °F 37.9 °F 68% 29.82 in 10.0 mi WNW 4.6 mph - N/A   Clear
6:53 AM 48.9 °F 39.0 °F 69% 29.85 in 10.0 mi West 6.9 mph - N/A   Clear
7:53 AM 53.1 °F 39.9 °F 61% 29.87 in 10.0 mi WNW 9.2 mph - N/A   Clear
8:53 AM 57.0 °F 39.0 °F 51% 29.88 in 10.0 mi WNW 8.1 mph - N/A   Clear
9:53 AM 61.0 °F 39.0 °F 44% 29.89 in 10.0 mi NW 10.4 mph - N/A   Clear
10:53 AM 64.0 °F 37.9 °F 38% 29.89 in 10.0 mi West 8.1 mph - N/A   Clear
11:53 AM 66.0 °F 37.9 °F 36% 29.89 in 10.0 mi WNW 15.0 mph 25.3 mph N/A   Clear
12:53 PM 68.0 °F 34.0 °F 28% 29.89 in 10.0 mi WNW 15.0 mph 23.0 mph N/A   Clear
1:53 PM 70.0 °F 39.0 °F 32% 29.88 in 10.0 mi West 11.5 mph - N/A   Clear
2:53 PM 71.1 °F 36.0 °F 28% 29.87 in 10.0 mi WNW 12.7 mph 21.9 mph N/A   Clear
3:53 PM 73.0 °F 36.0 °F 26% 29.86 in 10.0 mi WNW 15.0 mph 21.9 mph N/A   Clear
4:53 PM 72.0 °F 34.0 °F 25% 29.87 in 10.0 mi WNW 15.0 mph 21.9 mph N/A   Clear
5:53 PM 70.0 °F 35.1 °F 28% 29.87 in 10.0 mi WNW 10.4 mph - N/A   Clear
6:53 PM 68.0 °F 37.0 °F 32% 29.88 in 10.0 mi WNW 6.9 mph - 0.00 in Rain Light Rain
7:53 PM 66.0 °F 39.9 °F 38% 29.89 in 10.0 mi WSW 5.8 mph - 0.00 in   Mostly Cloudy
8:53 PM 62.1 °F 41.0 °F 46% 29.91 in 10.0 mi North 9.2 mph - N/A   Mostly Cloudy
9:53 PM 60.1 °F 42.1 °F 51% 29.93 in 10.0 mi NW 5.8 mph - N/A   Clear
10:53 PM 59.0 °F 42.1 °F 53% 29.94 in 10.0 mi NNW 6.9 mph - N/A   Clear
11:53 PM 57.0 °F 44.1 °F 62% 29.94 in 10.0 mi NNW 6.9 mph - N/A   Clear